| time (UTC) | temp C | wind direction | speed KPH | gust KPH | rain 1hr cm | rain 24hr cm | rain mn cm | humidity % | barometer mb |
| 20260504050004 | 17 | 157 | 17.7 | 41.8 | 0.00 | 0.23 | 0.00 | 60 | 1008.9 |
| 20260504045404 | 17 | 157 | 17.7 | 45.1 | 0.00 | 0.23 | 0.00 | 59 | 1008.8 |
| 20260504044525 | 17 | 157 | 16.1 | 33.8 | 0.00 | 0.23 | 0.00 | 59 | 1008.9 |
| 20260504043604 | 17 | 157 | 16.1 | 35.4 | 0.00 | 0.23 | 0.00 | 59 | 1008.9 |
| 20260504042704 | 17 | 157 | 16.1 | 40.2 | 0.00 | 0.23 | 0.00 | 60 | 1008.9 |
| 20260504041804 | 17 | 157 | 14.5 | 38.6 | 0.00 | 0.23 | 0.00 | 62 | 1008.9 |
| 20260504040904 | 16 | 157 | 17.7 | 38.6 | 0.00 | 0.23 | 0.00 | 62 | 1009.0 |
| 20260504040004 | 17 | 157 | 17.7 | 40.2 | 0.00 | 0.25 | 0.00 | 59 | 1009.1 |
| 20260504035405 | 17 | 157 | 16.1 | 40.2 | 0.00 | 0.25 | 0.00 | 58 | 1009.1 |
| 20260504034504 | 17 | 157 | 12.9 | 38.6 | 0.00 | 0.25 | 0.00 | 57 | 1009.1 |
| 20260504033604 | 18 | 157 | 12.9 | 32.2 | 0.00 | 0.28 | 0.00 | 59 | 1009.3 |
| 20260504032725 | 17 | 157 | 12.9 | 27.4 | 0.00 | 0.28 | 0.00 | 60 | 1009.3 |
| 20260504031804 | 17 | 157 | 17.7 | 35.4 | 0.00 | 0.30 | 0.00 | 61 | 1009.5 |
| 20260504030904 | 17 | 157 | 14.5 | 41.8 | 0.00 | 0.30 | 0.00 | 59 | 1009.8 |
| 20260504030004 | 17 | 157 | 16.1 | 32.2 | 0.00 | 0.30 | 0.00 | 64 | 1009.7 |
| 20260504025404 | 17 | 157 | 16.1 | 29.0 | 0.00 | 0.30 | 0.00 | 63 | 1009.8 |
| 20260504024504 | 17 | 157 | 16.1 | 29.0 | 0.00 | 0.30 | 0.00 | 62 | 1009.8 |
| 20260504023604 | 17 | 157 | 16.1 | 35.4 | 0.00 | 0.30 | 0.00 | 63 | 1009.7 |
| 20260504022704 | 17 | 157 | 16.1 | 35.4 | 0.00 | 0.30 | 0.00 | 64 | 1009.9 |
| 20260504021804 | 17 | 157 | 16.1 | 33.8 | 0.00 | 0.30 | 0.00 | 62 | 1010.1 |
| 20260504020904 | 17 | 157 | 17.7 | 37.0 | 0.00 | 0.33 | 0.00 | 64 | 1010.1 |
| 20260504015404 | 17 | 157 | 19.3 | 41.8 | 0.00 | 0.43 | 0.00 | 64 | 1010.3 |
| 20260504014504 | 17 | 157 | 17.7 | 40.2 | 0.00 | 0.51 | 0.00 | 64 | 1010.5 |
| 20260504013604 | 17 | 157 | 17.7 | 40.2 | 0.00 | 0.64 | 0.00 | 65 | 1010.5 |
| 20260504012704 | 17 | 157 | 17.7 | 37.0 | 0.00 | 0.79 | 0.00 | 65 | 1010.4 |
| 20260504011825 | 17 | 157 | 16.1 | 43.5 | 0.00 | 0.86 | 0.00 | 66 | 1010.5 |
| 20260504010904 | 17 | 157 | 14.5 | 37.0 | 0.00 | 1.04 | 0.00 | 65 | 1010.6 |
| 20260504010004 | 17 | 157 | 14.5 | 35.4 | 0.00 | 1.14 | 0.00 | 67 | 1010.6 |
| 20260504005404 | 17 | 157 | 14.5 | 33.8 | 0.00 | 1.14 | 0.00 | 67 | 1010.7 |
| 20260504004525 | 16 | 157 | 16.1 | 35.4 | 0.00 | 1.17 | 0.00 | 69 | 1010.8 |
| 20260504003604 | 16 | 157 | 16.1 | 35.4 | 0.00 | 1.27 | 0.00 | 68 | 1010.8 |
| 20260504002704 | 16 | 157 | 16.1 | 40.2 | 0.00 | 1.35 | 0.00 | 69 | 1010.6 |
| 20260504001804 | 16 | 157 | 17.7 | 38.6 | 0.00 | 1.37 | 0.00 | 69 | 1010.7 |
| 20260504000904 | 16 | 157 | 17.7 | 35.4 | 0.00 | 1.37 | 0.00 | 70 | 1010.6 |
| 20260504000004 | 16 | 157 | 17.7 | 35.4 | 0.00 | 1.37 | 0.00 | 69 | 1010.7 |
| 20260503235404 | 15 | 157 | 17.7 | 32.2 | 0.00 | 1.37 | 0.00 | 69 | 1010.9 |
| 20260503234504 | 15 | 157 | 17.7 | 33.8 | 0.00 | 1.37 | 0.00 | 69 | 1010.8 |
| 20260503233604 | 15 | 157 | 14.5 | 33.8 | 0.00 | 1.37 | 0.00 | 69 | 1010.8 |
| 20260503232704 | 15 | 157 | 12.9 | 32.2 | 0.00 | 1.37 | 0.00 | 71 | 1011.1 |
| 20260503231825 | 15 | 157 | 12.9 | 27.4 | 0.00 | 1.37 | 0.00 | 71 | 1011.2 |
| 20260503230904 | 15 | 157 | 14.5 | 30.6 | 0.00 | 1.37 | 0.00 | 72 | 1011.2 |
| 20260503230004 | 15 | 157 | 12.9 | 27.4 | 0.00 | 1.37 | 0.00 | 72 | 1011.3 |
| 20260503225404 | 15 | 157 | 12.9 | 29.0 | 0.00 | 1.37 | 0.00 | 73 | 1011.2 |
| 20260503224504 | 14 | 157 | 11.3 | 25.7 | 0.00 | 1.37 | 0.00 | 73 | 1011.3 |
| 20260503223626 | 14 | 157 | 12.9 | 35.4 | 0.00 | 1.37 | 0.00 | 74 | 1011.4 |
| 20260503222704 | 14 | 157 | 12.9 | 30.6 | 0.00 | 1.37 | 0.00 | 74 | 1011.3 |
| 20260503221804 | 13 | 157 | 12.9 | 29.0 | 0.00 | 1.37 | 0.00 | 76 | 1011.2 |
| 20260503220904 | 13 | 157 | 14.5 | 33.8 | 0.00 | 1.37 | 0.00 | 76 | 1011.2 |
| 20260503220025 | 13 | 157 | 12.9 | 32.2 | 0.00 | 1.37 | 0.00 | 78 | 1011.2 |
| 20260503215404 | 13 | 157 | 12.9 | 27.4 | 0.00 | 1.37 | 0.00 | 78 | 1011.3 |
| 20260503214504 | 13 | 157 | 12.9 | 32.2 | 0.00 | 1.37 | 0.00 | 79 | 1011.5 |
| 20260503213604 | 13 | 157 | 11.3 | 27.4 | 0.00 | 1.37 | 0.00 | 79 | 1011.2 |
| 20260503212725 | 13 | 157 | 12.9 | 30.6 | 0.00 | 1.37 | 0.00 | 79 | 1011.2 |
| 20260503211804 | 13 | 157 | 14.5 | 27.4 | 0.00 | 1.37 | 0.00 | 80 | 1011.3 |
| 20260503210904 | 13 | 157 | 14.5 | 30.6 | 0.00 | 1.40 | 0.00 | 81 | 1011.3 |
| 20260503210005 | 13 | 157 | 12.9 | 30.6 | 0.00 | 1.40 | 0.00 | 81 | 1011.3 |
| 20260503205404 | 13 | 157 | 12.9 | 30.6 | 0.00 | 1.40 | 0.00 | 82 | 1011.3 |
| 20260503204504 | 12 | 157 | 11.3 | 24.1 | 0.00 | 1.40 | 0.00 | 82 | 1011.2 |
| 20260503203604 | 12 | 157 | 9.7 | 30.6 | 0.00 | 1.40 | 0.00 | 82 | 1011.0 |
| 20260503202704 | 12 | 157 | 9.7 | 25.7 | 0.00 | 1.40 | 0.00 | 82 | 1010.9 |
| 20260503201825 | 12 | 157 | 9.7 | 22.5 | 0.00 | 1.40 | 0.00 | 82 | 1010.9 |
| 20260503200904 | 13 | 157 | 11.3 | 22.5 | 0.00 | 1.40 | 0.00 | 83 | 1011.0 |
| 20260503200004 | 13 | 157 | 9.7 | 24.1 | 0.00 | 1.40 | 0.00 | 83 | 1011.1 |
| 20260503195404 | 13 | 157 | 9.7 | 24.1 | 0.00 | 1.40 | 0.00 | 83 | 1011.1 |
| 20260503194504 | 12 | 157 | 11.3 | 24.1 | 0.00 | 1.40 | 0.00 | 84 | 1011.1 |
| 20260503193604 | 12 | 157 | 9.7 | 25.7 | 0.00 | 1.40 | 0.00 | 84 | 1011.2 |
| 20260503192704 | 12 | 157 | 8.0 | 25.7 | 0.00 | 1.40 | 0.00 | 85 | 1011.3 |
| 20260503191804 | 12 | 157 | 8.0 | 22.5 | 0.00 | 1.40 | 0.00 | 85 | 1011.4 |
| 20260503190904 | 12 | 157 | 9.7 | 22.5 | 0.00 | 1.40 | 0.00 | 85 | 1011.5 |
| 20260503190004 | 12 | 157 | 11.3 | 27.4 | 0.00 | 1.40 | 0.00 | 85 | 1011.4 |
| 20260503185404 | 12 | 157 | 11.3 | 27.4 | 0.00 | 1.40 | 0.00 | 85 | 1011.5 |
| 20260503184504 | 13 | 157 | 12.9 | 29.0 | 0.00 | 1.40 | 0.00 | 85 | 1011.6 |
| 20260503183604 | 13 | 157 | 11.3 | 29.0 | 0.00 | 1.40 | 0.00 | 85 | 1011.5 |
| 20260503182704 | 12 | 157 | 9.7 | 22.5 | 0.00 | 1.40 | 0.00 | 85 | 1011.5 |
| 20260503181804 | 12 | 157 | 9.7 | 25.7 | 0.00 | 1.40 | 0.00 | 85 | 1011.8 |
| 20260503180904 | 12 | 157 | 9.7 | 19.3 | 0.00 | 1.40 | 0.00 | 84 | 1011.7 |
| 20260503180004 | 13 | 157 | 9.7 | 19.3 | 0.00 | 1.40 | 0.00 | 85 | 1011.8 |
| 20260503175425 | 13 | 157 | 11.3 | 22.5 | 0.00 | 1.40 | 0.00 | 85 | 1011.8 |
| 20260503174504 | 13 | 157 | 11.3 | 25.7 | 0.00 | 1.40 | 0.00 | 85 | 1011.9 |
| 20260503173604 | 13 | 157 | 11.3 | 20.9 | 0.00 | 1.40 | 0.00 | 85 | 1011.9 |
| 20260503172725 | 13 | 157 | 9.7 | 27.4 | 0.00 | 1.40 | 0.00 | 85 | 1012.0 |
| 20260503171804 | 13 | 157 | 9.7 | 20.9 | 0.00 | 1.40 | 0.00 | 85 | 1011.9 |
| 20260503170904 | 13 | 157 | 9.7 | 24.1 | 0.00 | 1.40 | 0.00 | 85 | 1012.0 |
| 20260503150904 | 13 | 157 | 11.3 | 27.4 | 0.00 | 1.40 | 0.00 | 83 | 1012.2 |
| 20260503130904 | 15 | 157 | 12.9 | 27.4 | 0.00 | 1.40 | 1.40 | 78 | 1012.7 |
| 20260503080904 | 14 | 157 | 1.6 | 6.4 | 0.00 | 1.40 | 1.40 | 83 | 1011.3 |
| 20260503072704 | 15 | 157 | 3.2 | 9.7 | 0.00 | 1.40 | 1.40 | 86 | 1011.3 |
| 20260503071804 | 15 | 157 | 3.2 | 9.7 | 0.00 | 1.40 | 1.40 | 86 | 1011.2 |
| 20260503070904 | 15 | 157 | 1.6 | 9.7 | 0.00 | 1.40 | 1.40 | 87 | 1010.9 |
| 20260503054525 | 16 | 157 | 9.7 | 25.7 | 0.23 | 1.40 | 1.40 | 89 | 1010.6 |
| 20260503053625 | 16 | 157 | 8.0 | 22.5 | 0.23 | 1.40 | 1.40 | 89 | 1010.7 |
| 20260503052704 | 17 | 157 | 6.4 | 16.1 | 0.13 | 1.30 | 1.30 | 89 | 1010.3 |
| 20260503051804 | 17 | 157 | 11.3 | 19.3 | 0.08 | 1.24 | 1.24 | 87 | 1010.3 |